Weather in Orekhovka

Russia / Ulyanovsk Oblast     52°56′32″N   48°12′30″E
temp.,
°C
wind,
m/s
gust,
m/s
humid.,
%
clouds,
%
prec.,
mm/h
press.,
hPa
HPBL,
m
18 may, wed
wed1801:00+6sw378312 0.0 1003128
04:00+6ssw2591100 0.2 1002265
07:00+7w3591100 0.3 1002389
10:00+8nw468280 0.4 1004599
13:00+13wnw565891 0.4 10041516
16:00+12nw81067100 1.3 10061353
19:00+11nw467697 0.3 1008813
22:00+8nw118892 0.4 101017
19 may, thu
thu1901:00+8wsw248782 0.1 1010139
04:00+7w379052 0.2 1011204
07:00+8wnw47805 0.0 1012396
10:00+11wnw686484 0.0 10111381
13:00+12wnw795468 0.1 10121714
16:00+14wnw5843100 0.1 10112239
19:00+13w4659100 0.1 1010394
22:00+8nw51085100 0.3 1012409
20 may, fri
fri2001:00+6nw47958 0.8 1012281
04:00+4nw25955 0.8 1012124
07:00+6nw358110 0.0 1012314
10:00+9nnw5664100 0.1 10121403
13:00+9nnw675990 0.2 10121446
16:00+11nnw7846100 0.7 10112242
19:00+9nnw69575 0.1 10111147
22:00+5nw511720 0.1 1012303
21 may, sat
sat2101:00+3wnw511830 0.0 1011268
04:00+2wnw410884 0.0 1011231
07:00+5nw58780 0.0 1011427
10:00+9nw45585 0.0 10101262
13:00+11nw2343100 0.1 10082105
16:00+12ssw2443100 0.1 10062045
19:00+9w1265100 0.3 1005109
22:00+7ne6980100 0.6 1005476
22 may, sun
sun2201:00+4nne61281100 0.0 1003475
04:00+2n71285100 0.0 1003630
07:00+3n8128383 0.0 1003858
10:00+2nnw81280100 0.1 10041127
13:00+5n91164100 0.0 10041361
16:00+6nnw8116799 0.1 10061512
19:00+6nnw7117065 0.1 10061223
22:00+3nw612815 0.1 1007408